TimeEST,TemperatureF,Dew PointF,Humidity,Sea Level PressureIn,VisibilityMPH,Wind Direction,Wind SpeedMPH,Gust SpeedMPH,PrecipitationIn,Events,Conditions,WindDirDegrees,DateUTC
12:53 AM,19.9,17.1,89,30.35,6.0,Calm,Calm,-,N/A,,Overcast,0,2001-01-01 05:53:00
1:53 AM,19.9,17.1,89,30.36,7.0,West,3.5,-,N/A,,Overcast,280,2001-01-01 06:53:00
2:53 AM,19.9,18.0,92,30.36,6.0,Calm,Calm,-,N/A,,Overcast,0,2001-01-01 07:53:00
3:53 AM,19.9,18.0,92,30.36,6.0,Calm,Calm,-,N/A,,Overcast,0,2001-01-01 08:53:00
4:36 AM,19.4,17.6,93,30.32,4.0,Calm,Calm,-,0.00,Snow,Light Snow,0,2001-01-01 09:36:00
4:53 AM,19.9,18.0,92,30.36,1.2,Calm,Calm,-,0.00,Snow,Light Snow,0,2001-01-01 09:53:00
5:34 AM,19.4,17.6,93,30.33,2.0,Calm,Calm,-,0.00,Snow,Light Snow,0,2001-01-01 10:34:00
5:53 AM,19.9,18.0,92,30.37,3.0,Calm,Calm,-,0.01,Snow,Light Snow,0,2001-01-01 10:53:00
6:06 AM,19.4,17.6,93,30.34,2.5,Calm,Calm,-,0.00,Snow,Light Snow,0,2001-01-01 11:06:00
6:35 AM,19.4,17.6,93,30.34,2.5,Calm,Calm,-,0.00,Snow,Light Snow,0,2001-01-01 11:35:00
6:44 AM,19.4,17.6,93,30.34,3.0,Calm,Calm,-,0.00,Snow,Light Snow,0,2001-01-01 11:44:00
6:53 AM,19.0,17.1,92,30.38,3.0,Calm,Calm,-,0.00,Snow,Light Snow,0,2001-01-01 11:53:00
7:32 AM,19.4,17.6,93,30.35,2.5,Calm,Calm,-,0.00,Snow,Light Snow,0,2001-01-01 12:32:00
7:41 AM,19.4,17.6,93,30.35,2.0,Calm,Calm,-,0.00,Snow,Light Snow,0,2001-01-01 12:41:00
7:53 AM,19.0,18.0,96,30.39,1.5,Calm,Calm,-,0.00,Snow,Light Snow,0,2001-01-01 12:53:00
8:53 AM,19.9,18.0,92,30.40,1.0,Calm,Calm,-,0.00,Snow,Light Snow,0,2001-01-01 13:53:00
9:12 AM,19.4,17.6,93,30.37,0.8,Calm,Calm,-,0.01,Snow,Light Snow,0,2001-01-01 14:12:00
9:21 AM,19.4,17.6,93,30.37,0.8,Calm,Calm,-,0.01,Snow,Light Snow,0,2001-01-01 14:21:00
9:42 AM,19.4,17.6,93,30.37,0.5,Calm,Calm,-,0.01,Fog-Snow,Snow,0,2001-01-01 14:42:00
9:53 AM,19.9,18.0,92,30.41,0.5,NNW,3.5,-,0.02,Fog-Snow,Light Snow,330,2001-01-01 14:53:00
10:06 AM,19.4,17.6,93,30.38,0.8,WNW,3.5,-,0.00,Snow,Light Snow,300,2001-01-01 15:06:00
10:21 AM,21.2,17.6,86,30.38,1.0,NNW,4.6,-,0.00,Snow,Light Snow,330,2001-01-01 15:21:00
10:53 AM,21.0,18.0,88,30.43,1.0,North,4.6,-,0.00,Snow,Light Snow,360,2001-01-01 15:53:00
11:19 AM,21.2,17.6,86,30.39,1.0,North,5.8,-,0.00,Snow,Light Snow,10,2001-01-01 16:19:00
11:53 AM,21.9,19.0,89,30.42,0.8,North,5.8,-,0.01,Snow,Light Snow,10,2001-01-01 16:53:00
12:01 PM,21.2,19.4,93,30.38,1.0,North,5.8,-,0.00,Snow,Light Snow,10,2001-01-01 17:01:00
12:30 PM,23.0,19.4,86,30.37,2.0,North,5.8,-,0.00,Snow,Light Snow,10,2001-01-01 17:30:00
12:53 PM,24.1,19.0,81,30.40,4.0,North,4.6,-,0.00,Snow,Light Snow,10,2001-01-01 17:53:00
1:10 PM,24.8,19.4,80,30.36,5.0,North,4.6,-,0.00,,Haze,10,2001-01-01 18:10:00
1:53 PM,23.0,18.0,81,30.38,7.0,North,4.6,-,0.00,,Mostly Cloudy,10,2001-01-01 18:53:00
2:53 PM,25.0,19.0,78,30.39,10.0,NNE,4.6,-,N/A,,Overcast,20,2001-01-01 19:53:00
3:53 PM,26.1,19.0,75,30.40,10.0,North,5.8,-,N/A,,Overcast,10,2001-01-01 20:53:00
4:42 PM,24.8,19.4,80,30.39,1.8,NW,6.9,-,0.00,Snow,Light Snow,310,2001-01-01 21:42:00
4:53 PM,24.1,19.9,84,30.43,1.2,NW,5.8,-,0.00,Snow,Light Snow,310,2001-01-01 21:53:00
5:53 PM,23.0,19.9,88,30.44,2.0,WNW,6.9,-,0.00,Snow,Light Snow,290,2001-01-01 22:53:00
6:07 PM,23.0,19.4,86,30.41,4.0,WNW,5.8,-,0.00,Snow,Light Snow,290,2001-01-01 23:07:00
6:53 PM,19.9,16.0,85,30.46,7.0,WNW,4.6,-,0.00,,Partly Cloudy,290,2001-01-01 23:53:00
7:43 PM,19.4,15.8,86,30.44,7.0,WNW,4.6,-,N/A,,Mostly Cloudy,300,2001-01-02 00:43:00
7:53 PM,19.0,15.1,85,30.48,7.0,WNW,4.6,-,N/A,,Mostly Cloudy,300,2001-01-02 00:53:00
8:53 PM,18.0,14.0,84,30.50,7.0,NW,4.6,-,N/A,,Overcast,320,2001-01-02 01:53:00
9:08 PM,17.6,14.0,86,30.46,7.0,WNW,5.8,-,N/A,,Overcast,290,2001-01-02 02:08:00
9:53 PM,17.1,14.0,88,30.51,7.0,West,5.8,-,N/A,,Overcast,270,2001-01-02 02:53:00
10:53 PM,18.0,15.1,88,30.53,7.0,West,6.9,-,N/A,,Overcast,270,2001-01-02 03:53:00
11:20 PM,15.8,10.4,79,30.49,7.0,WNW,4.6,-,N/A,,Scattered Clouds,300,2001-01-02 04:20:00
11:53 PM,15.1,10.9,84,30.54,6.0,WNW,4.6,-,N/A,,Clear,300,2001-01-02 04:53:00